NOAA 16 DEB, 41126

Orbit data source: Space-Track

NOAA 16 DEB, 41126 is space debris in SSO originally from a launch on Thu, 21 Sep 2000 UTC launched from the Air Force Western Test Range (AFWTR). Debris objects in space refer to the collection of defunct objects orbiting the Earth. Examples of debris include non-operational satellites, rocket bodies, and fragments generated from explosions, collisions, or faulty payload assembly.

Loading next visibility...
Identifier
41126, 2000-055BH
Orbit
SSO
Last TLE update
12 hours ago
Origin
Manufacturer
Unknown
Mission
Spacecraft
Bus & Motor
Unknown
Mass
Unknown
Launch date (UTC)
2000-09-21 (25 years ago)
Launch vehicle
Unknown
Launch site
Air Force Western Test Range (AFWTR)
Object type
Payload
Rocket body
Debris
Shape & HBR
Unknown
Radar Cross Section
Small (<0.1 m²)

Expand to show TLE details & history

TLE from 12 hours ago
0 NOAA 16 DEB
1 41126U 00055BH  25189.82716053  .00001723  00000-0  95611-3 0  9999
2 41126  98.7611 194.7884 0064396 251.1410 108.2771 14.11466652490859
Epoch: 2025-07-08T19:51Z
TLE epoch observation values (Epoch: 2025-07-08T19:51:06.669Z)
Latitude
-0.00005°
Longitude
-30.00594°
Altitude
872.137 km
Speed
7.409 km/s
True Right ascension
12h 59m 09s
True Declination
0° 00' 00"
Sunlit
Object was in daylight at epoch
Visualization orbit readout
Latitude
-59.24537°
Longitude
-14.604°
Altitude
847.109 km
Speed
7.444 km/s
Apparent Right ascension
10h 14m 31s
Apparent Declination
-60° 20' 09"
Sunlit
Object is in daylight
Visualization observer readout
Local Sidereal Time
19:38:06
Azimuth
216.619° SW
Elevation
-58.444°
Doppler factor
1
Orbital elements
Apogee altitude
898.086 km
Perigee altitude
804.973 km
Semi-major axis
7,229.666 km
Eccentricity
0.00644
Inclination
98.7611°
RAAN
194.7884°
Arg. of periapsis
251.141°
True anomaly
Unknown
Mean anomaly
108.2771°
Eccentric anomaly
Unknown
Mean motion
3.53074 °/min
Orbital period
101.96 mins
BSTAR
0.00095611
Loading maneuver chart data...
Loading SW <> Apogee altitude chart data...
Loading historical data...
Loading historical data...
Loading historical data...
Loading historical data...
Loading historical data...
Loading historical data...
Loading historical data...

NOAA 16 DEB Visibility forecast

Observer location: undefined°, undefined°

Span
Click to sort rows by Start time (UTC) header in descending order
Start Az.
Max El. time (UTC)
Max El. Az.
Max El.
End time (UTC)
End Az.
5 mins2025-07-09 11:47:36.022Z59.816° ENE2025-07-09 11:50:36.022Z92.855° ESE13.6°2025-07-09 11:52:36.022Z115.281° SE
9 mins2025-07-09 13:27:36.022Z7.795° NNE2025-07-09 13:31:36.022Z292.808° NW43.832°2025-07-09 13:36:36.022Z203.081° SW
8 mins2025-07-09 23:13:36.022Z111.44° ESE2025-07-09 23:17:36.022Z56.673° ENE23.666°2025-07-09 23:21:36.022Z11.46° NNE
9 mins2025-07-10 00:53:36.022Z195.736° SSW2025-07-10 00:57:36.022Z261.342° W35.079°2025-07-10 01:02:36.022Z331.546° NNW
|